| time (UTC) | temp F | wind direction | speed knots | gust knots | rain 1hr in | rain 24hr in | rain mn in | humidity % | barometer mb |
| 20260505183520 | 57 | 23 | 4.3 | 8.7 | 0.00 | 0.00 | 0.00 | 61 | 1013.6 |
| 20260505182520 | 57 | 0 | 6.1 | 10.4 | 0.00 | 0.00 | 0.00 | 61 | 1013.5 |
| 20260505181520 | 57 | 23 | 5.2 | 11.3 | 0.00 | 0.00 | 0.00 | 60 | 1013.6 |
| 20260505180518 | 57 | 23 | 3.5 | 8.7 | 0.00 | 0.00 | 0.00 | 62 | 1013.7 |
| 20260505175519 | 57 | 338 | 5.2 | 8.7 | 0.00 | 0.00 | 0.00 | 62 | 1013.6 |
| 20260505174519 | 57 | 338 | 5.2 | 11.3 | 0.00 | 0.00 | 0.00 | 62 | 1013.7 |
| 20260505173615 | 57 | 23 | 7.0 | 14.8 | 0.00 | 0.00 | 0.00 | 61 | 1013.7 |
| 20260505172520 | 58 | 23 | 5.2 | 9.6 | 0.00 | 0.00 | 0.00 | 60 | 1013.5 |
| 20260505171520 | 58 | 23 | 6.1 | 10.4 | 0.00 | 0.00 | 0.00 | 59 | 1013.6 |
| 20260505170520 | 58 | 23 | 4.3 | 11.3 | 0.00 | 0.00 | 0.00 | 60 | 1013.9 |
| 20260505165519 | 58 | 338 | 4.3 | 8.7 | 0.00 | 0.00 | 0.00 | 58 | 1013.9 |
| 20260505164605 | 59 | 338 | 5.2 | 9.6 | 0.00 | 0.00 | 0.00 | 57 | 1013.8 |
| 20260505163539 | 59 | 338 | 5.2 | 9.6 | 0.00 | 0.00 | 0.00 | 57 | 1013.9 |
| 20260505162519 | 60 | 0 | 5.2 | 9.6 | 0.00 | 0.00 | 0.00 | 55 | 1013.8 |
| 20260505161525 | 60 | 0 | 7.0 | 13.0 | 0.00 | 0.00 | 0.00 | 53 | 1013.8 |
| 20260505160519 | 62 | 23 | 5.2 | 10.4 | 0.00 | 0.00 | 0.00 | 53 | 1013.9 |
| 20260505152519 | 61 | 0 | 7.0 | 12.2 | 0.00 | 0.00 | 0.00 | 53 | 1014.0 |
| 20260505151519 | 61 | 0 | 6.1 | 11.3 | 0.00 | 0.00 | 0.00 | 53 | 1014.0 |
| 20260505150519 | 61 | 0 | 6.1 | 11.3 | 0.00 | 0.00 | 0.00 | 56 | 1014.0 |
| 20260505123519 | 63 | 23 | 6.1 | 11.3 | 0.00 | 0.00 | 0.00 | 53 | 1014.8 |
| 20260505122519 | 64 | 0 | 7.0 | 12.2 | 0.00 | 0.00 | 0.00 | 50 | 1014.9 |
| 20260505121519 | 64 | 23 | 2.6 | 8.7 | 0.00 | 0.00 | 0.00 | 57 | 1014.8 |
| 20260505120539 | 64 | 0 | 4.3 | 9.6 | 0.00 | 0.00 | 0.00 | 52 | 1015.0 |
| 20260505115521 | 62 | 0 | 5.2 | 10.4 | 0.00 | 0.00 | 0.00 | 53 | 1015.0 |
| 20260505114524 | 63 | 0 | 7.0 | 12.2 | 0.00 | 0.00 | 0.00 | 54 | 1015.0 |
| 20260505113519 | 63 | 0 | 4.3 | 9.6 | 0.00 | 0.00 | 0.00 | 60 | 1015.1 |
| 20260505112519 | 62 | 0 | 5.2 | 12.2 | 0.00 | 0.00 | 0.00 | 59 | 1015.1 |
| 20260505111519 | 63 | 0 | 4.3 | 10.4 | 0.00 | 0.00 | 0.00 | 57 | 1015.4 |
| 20260505110520 | 63 | 0 | 6.1 | 11.3 | 0.00 | 0.00 | 0.00 | 57 | 1015.4 |
| 20260505101519 | 60 | 0 | 5.2 | 12.2 | 0.00 | 0.00 | 0.00 | 58 | 1015.4 |
| 20260505100520 | 61 | 68 | 4.3 | 8.7 | 0.00 | 0.00 | 0.00 | 58 | 1015.4 |
| 20260505095518 | 60 | 45 | 5.2 | 12.2 | 0.00 | 0.00 | 0.00 | 60 | 1015.4 |
| 20260505094519 | 60 | 338 | 4.3 | 9.6 | 0.00 | 0.00 | 0.00 | 62 | 1015.5 |
| 20260505093619 | 60 | 23 | 7.0 | 13.0 | 0.00 | 0.00 | 0.00 | 61 | 1015.4 |
| 20260505092524 | 60 | 0 | 6.1 | 10.4 | 0.00 | 0.00 | 0.00 | 59 | 1015.4 |
| 20260505091519 | 61 | 45 | 5.2 | 13.0 | 0.00 | 0.00 | 0.00 | 63 | 1015.4 |
| 20260505090519 | 60 | 45 | 3.5 | 8.7 | 0.00 | 0.00 | 0.00 | 63 | 1015.4 |
| 20260505085519 | 59 | 0 | 5.2 | 10.4 | 0.00 | 0.00 | 0.00 | 63 | 1015.4 |
| 20260505084519 | 58 | 0 | 6.1 | 13.0 | 0.00 | 0.00 | 0.00 | 65 | 1015.3 |
| 20260505083519 | 57 | 0 | 6.1 | 13.0 | 0.00 | 0.00 | 0.00 | 68 | 1015.1 |
| 20260505082519 | 56 | 0 | 5.2 | 9.6 | 0.00 | 0.00 | 0.00 | 71 | 1015.2 |
| 20260505081518 | 54 | 45 | 4.3 | 7.8 | 0.00 | 0.00 | 0.00 | 74 | 1015.3 |
| 20260505080538 | 53 | 23 | 3.5 | 9.6 | 0.00 | 0.00 | 0.00 | 75 | 1015.2 |
| 20260505075518 | 52 | 45 | 1.7 | 5.2 | 0.00 | 0.00 | 0.00 | 79 | 1015.2 |
| 20260505074519 | 52 | 23 | 2.6 | 7.8 | 0.00 | 0.00 | 0.00 | 80 | 1015.3 |
| 20260505073616 | 52 | 338 | 2.6 | 5.2 | 0.00 | 0.00 | 0.00 | 81 | 1015.4 |
| 20260505072521 | 51 | 45 | 2.6 | 7.0 | 0.00 | 0.00 | 0.00 | 83 | 1015.2 |
| 20260505071521 | 51 | 68 | 2.6 | 7.0 | 0.00 | 0.00 | 0.00 | 84 | 1015.2 |
| 20260505070519 | 51 | 45 | 0.9 | 3.5 | 0.00 | 0.00 | 0.00 | 85 | 1015.2 |
| 20260505065518 | 51 | 23 | 3.5 | 6.1 | 0.00 | 0.00 | 0.00 | 86 | 1015.3 |
| 20260505064539 | 51 | 23 | 1.7 | 4.3 | 0.00 | 0.00 | 0.00 | 87 | 1015.3 |
| 20260505063519 | 50 | 23 | 1.7 | 7.0 | 0.00 | 0.00 | 0.00 | 88 | 1015.2 |
| 20260505062518 | 50 | 23 | 2.6 | 4.3 | 0.00 | 0.00 | 0.00 | 89 | 1015.2 |
| 20260505061518 | 50 | 23 | 1.7 | 2.6 | 0.00 | 0.00 | 0.00 | 89 | 1015.1 |
| 20260505060519 | 50 | 338 | 2.6 | 4.3 | 0.00 | 0.00 | 0.00 | 89 | 1015.1 |
| 20260505055539 | 49 | 0 | 2.6 | 4.3 | 0.00 | 0.00 | 0.00 | 90 | 1015.1 |
| 20260505054522 | 49 | 23 | 2.6 | 3.5 | 0.00 | 0.00 | 0.00 | 91 | 1015.0 |
| 20260505053518 | 49 | 45 | 0.9 | 2.6 | 0.00 | 0.00 | 0.00 | 91 | 1015.0 |
| 20260505052518 | 48 | 68 | 1.7 | 3.5 | 0.00 | 0.00 | 0.00 | 92 | 1014.9 |
| 20260505051518 | 48 | 68 | 0.9 | 3.5 | 0.00 | 0.00 | 0.00 | 91 | 1014.8 |
| 20260505050522 | 48 | 45 | 0.9 | 4.3 | 0.00 | 0.00 | 0.00 | 92 | 1014.9 |
| 20260505041620 | 46 | 23 | 1.7 | 5.2 | 0.00 | 0.00 | 0.00 | 92 | 1014.8 |
| 20260505035544 | 46 | 0.0 | 0.9 | 0.00 | 0.00 | 0.00 | 91 | 1014.6 | |
| 20260505033543 | 46 | 0.0 | 0.0 | 0.00 | 0.00 | 0.00 | 91 | 1014.6 | |
| 20260505032557 | 46 | 0.0 | 1.7 | 0.00 | 0.00 | 0.00 | 91 | 1014.7 | |
| 20260505031519 | 46 | 225 | 1.7 | 2.6 | 0.00 | 0.00 | 0.00 | 91 | 1014.8 |
| 20260505030613 | 46 | 0.0 | 0.9 | 0.00 | 0.00 | 0.00 | 91 | 1014.6 | |
| 20260505025607 | 46 | 225 | 0.9 | 2.6 | 0.00 | 0.00 | 0.00 | 90 | 1014.7 |
| 20260505023603 | 46 | 0.0 | 0.0 | 0.00 | 0.00 | 0.00 | 91 | 1014.8 | |
| 20260505022538 | 46 | 0.0 | 0.0 | 0.00 | 0.00 | 0.00 | 90 | 1014.7 | |
| 20260505021518 | 46 | 0.0 | 1.7 | 0.00 | 0.00 | 0.00 | 90 | 1014.9 | |
| 20260505020519 | 47 | 225 | 0.9 | 2.6 | 0.00 | 0.00 | 0.00 | 90 | 1015.0 |
| 20260505015519 | 47 | 0.0 | 0.9 | 0.00 | 0.00 | 0.00 | 90 | 1015.1 | |
| 20260505014543 | 47 | 0.0 | 0.9 | 0.00 | 0.00 | 0.00 | 89 | 1015.1 | |
| 20260505013538 | 48 | 225 | 0.9 | 1.7 | 0.00 | 0.00 | 0.00 | 89 | 1015.3 |
| 20260505012518 | 48 | 0.0 | 0.0 | 0.00 | 0.00 | 0.00 | 90 | 1015.4 | |
| 20260505011518 | 48 | 0.0 | 0.0 | 0.00 | 0.00 | 0.00 | 89 | 1015.2 | |
| 20260505010518 | 49 | 0.0 | 0.0 | 0.00 | 0.00 | 0.00 | 89 | 1015.2 | |
| 20260505005519 | 49 | 0.0 | 0.0 | 0.00 | 0.00 | 0.00 | 89 | 1015.2 | |
| 20260505004519 | 49 | 0.0 | 0.9 | 0.00 | 0.00 | 0.00 | 88 | 1015.3 | |
| 20260505003518 | 49 | 0.0 | 0.0 | 0.00 | 0.00 | 0.00 | 88 | 1015.4 | |
| 20260505002523 | 50 | 0.0 | 0.9 | 0.00 | 0.00 | 0.00 | 89 | 1015.5 | |
| 20260505001519 | 49 | 225 | 0.9 | 1.7 | 0.00 | 0.00 | 0.00 | 88 | 1015.5 |
| 20260505000524 | 50 | 0.0 | 1.7 | 0.00 | 0.00 | 0.00 | 88 | 1015.6 | |
| 20260504235520 | 50 | 225 | 0.9 | 1.7 | 0.00 | 0.00 | 0.00 | 88 | 1015.5 |
| 20260504234520 | 50 | 225 | 1.7 | 4.3 | 0.00 | 0.00 | 0.00 | 87 | 1015.6 |
| 20260504233518 | 51 | 293 | 1.7 | 2.6 | 0.00 | 0.00 | 0.00 | 87 | 1015.6 |
| 20260504232520 | 51 | 0.0 | 0.0 | 0.00 | 0.00 | 0.00 | 86 | 1015.5 | |
| 20260504231520 | 52 | 0 | 0.9 | 2.6 | 0.00 | 0.00 | 0.00 | 86 | 1015.5 |
| 20260504230540 | 52 | 0.0 | 1.7 | 0.00 | 0.00 | 0.00 | 85 | 1015.4 | |
| 20260504225517 | 52 | 90 | 0.9 | 2.6 | 0.00 | 0.00 | 0.00 | 86 | 1015.5 |
| 20260504224518 | 53 | 90 | 0.9 | 1.7 | 0.00 | 0.00 | 0.00 | 85 | 1015.5 |
| 20260504223538 | 53 | 90 | 0.9 | 2.6 | 0.00 | 0.00 | 0.00 | 84 | 1015.7 |
| 20260504222519 | 54 | 90 | 0.9 | 2.6 | 0.00 | 0.00 | 0.00 | 84 | 1015.7 |
| 20260504221518 | 54 | 113 | 0.9 | 2.6 | 0.00 | 0.00 | 0.00 | 84 | 1015.8 |
| 20260504220518 | 54 | 135 | 0.9 | 2.6 | 0.00 | 0.00 | 0.00 | 83 | 1015.8 |
| 20260504215520 | 55 | 90 | 1.7 | 4.3 | 0.00 | 0.00 | 0.00 | 82 | 1015.8 |
| 20260504214519 | 55 | 90 | 1.7 | 2.6 | 0.00 | 0.00 | 0.00 | 82 | 1015.7 |
| 20260504213521 | 55 | 68 | 0.9 | 2.6 | 0.00 | 0.00 | 0.00 | 81 | 1015.7 |
| 20260504212518 | 56 | 68 | 0.9 | 1.7 | 0.00 | 0.00 | 0.00 | 80 | 1015.6 |
| 20260504211519 | 56 | 68 | 1.7 | 3.5 | 0.00 | 0.00 | 0.00 | 80 | 1015.4 |
| 20260504210518 | 56 | 68 | 1.7 | 3.5 | 0.00 | 0.00 | 0.00 | 80 | 1015.5 |
| 20260504205524 | 57 | 68 | 1.7 | 4.3 | 0.00 | 0.00 | 0.00 | 80 | 1015.5 |
| 20260504204539 | 57 | 90 | 1.7 | 3.5 | 0.00 | 0.00 | 0.00 | 80 | 1015.6 |
| 20260504203518 | 57 | 90 | 1.7 | 2.6 | 0.00 | 0.00 | 0.00 | 81 | 1015.6 |
| 20260504202519 | 57 | 68 | 1.7 | 3.5 | 0.00 | 0.00 | 0.00 | 80 | 1015.6 |
| 20260504201524 | 58 | 68 | 0.9 | 2.6 | 0.00 | 0.00 | 0.00 | 80 | 1015.7 |
| 20260504200519 | 58 | 68 | 1.7 | 3.5 | 0.00 | 0.00 | 0.00 | 80 | 1015.6 |
| 20260504195519 | 58 | 68 | 1.7 | 2.6 | 0.00 | 0.00 | 0.00 | 80 | 1015.4 |
| 20260504194523 | 58 | 90 | 1.7 | 3.5 | 0.00 | 0.00 | 0.00 | 79 | 1015.3 |
| 20260504193522 | 59 | 90 | 1.7 | 3.5 | 0.00 | 0.00 | 0.00 | 79 | 1015.2 |
| 20260504192520 | 59 | 113 | 0.9 | 3.5 | 0.00 | 0.00 | 0.00 | 78 | 1015.2 |
| 20260504191520 | 59 | 90 | 1.7 | 4.3 | 0.00 | 0.00 | 0.00 | 76 | 1015.2 |
| 20260504190519 | 59 | 90 | 2.6 | 4.3 | 0.00 | 0.00 | 0.00 | 76 | 1015.1 |
| 20260504185519 | 59 | 68 | 3.5 | 7.0 | 0.00 | 0.00 | 0.00 | 75 | 1014.9 |
| 20260504184519 | 59 | 68 | 2.6 | 7.0 | 0.00 | 0.00 | 0.00 | 75 | 1014.9 |